Theta_e
316 316 317 318 321 327 329 328 323 323 325 323 319 319 328 337 325 318 331 338 327 333 348 344 344 355 357 358 364 357 346 343 347 347 347 348 348 348 348 350 351 353 353 355 354 353 351 350 352 353 355 356 355 357 359 360 361 361 361 361 362 361 361 360 360 360 359 359 357 357 357 356 356 355 355 355 356 355 356 355 355 355 355 357 358 359 359
314 315 319 322 327 329 328 328 327 326 328 324 321 323 330 336 334 334 341 342 337 339 344 344 345 347 347 351 359 356 349 347 347 346 346 346 346 347 348 348 350 351 353 355 354 355 353 350 351 353 354 356 357 358 359 359 361 362 362 362 363 362 361 361 360 360 360 359 358 359 358 357 357 356 355 356 355 356 356 356 356 355 355 356 357 358 359
315 317 322 326 331 332 327 327 328 326 325 326 324 324 330 332 331 343 349 343 341 341 340 342 343 344 345 347 353 356 351 346 347 346 345 344 346 348 348 348 349 350 353 354 355 356 354 351 351 353 354 355 357 357 358 359 360 363 364 364 363 363 363 362 361 361 360 360 360 359 358 358 357 356 356 356 356 355 356 356 356 356 355 356 356 358 359
316 318 320 323 329 331 327 327 332 327 323 325 322 321 335 333 328 337 341 334 336 339 338 339 340 339 342 343 346 352 352 348 348 347 346 346 347 347 348 350 350 351 352 354 356 355 352 351 351 352 354 355 356 357 357 358 358 361 364 365 365 365 364 363 362 362 361 361 361 360 359 359 358 357 356 356 356 356 356 356 357 357 356 356 357 357 358
318 317 318 322 328 332 331 330 332 332 329 330 328 332 346 346 340 339 336 334 343 344 335 336 339 338 341 344 344 346 349 352 353 349 348 349 349 349 351 351 350 350 350 353 354 353 352 352 352 352 353 355 356 356 357 358 359 360 363 366 366 366 366 365 364 364 363 362 361 360 361 359 359 358 357 357 356 356 356 356 356 357 357 357 357 357 358
316 316 320 327 329 331 333 332 332 334 338 345 348 346 347 349 348 346 344 342 343 339 336 344 352 353 354 357 358 356 353 355 357 358 357 356 355 355 354 354 354 354 355 354 352 350 351 351 352 352 354 355 356 357 358 360 360 360 362 365 366 367 367 366 366 365 364 363 362 362 361 359 359 359 358 357 356 355 355 356 356 357 357 357 358 358 357
316 323 331 338 339 337 336 332 330 332 336 343 348 349 348 347 348 351 355 348 338 341 353 358 358 362 360 359 364 365 361 361 363 365 366 367 368 368 366 367 369 370 370 366 358 352 352 352 353 353 354 355 357 358 359 361 361 362 362 363 366 367 367 367 367 366 365 364 363 362 361 360 360 359 359 358 357 357 356 356 355 355 356 356 357 357 357
321 327 331 336 343 344 337 331 330 331 333 337 346 352 349 345 347 349 353 353 343 346 358 361 358 360 359 357 360 361 361 362 361 361 362 363 364 366 368 372 375 374 371 365 360 356 355 355 356 356 357 359 359 359 360 362 363 363 362 362 364 365 367 367 367 367 366 365 363 363 362 360 360 359 359 358 358 357 356 355 355 355 355 357 357 357 357
324 322 324 333 343 345 340 334 331 330 331 333 341 351 350 345 345 347 349 355 357 352 355 357 357 358 359 361 361 357 356 358 356 358 358 356 358 360 361 365 367 365 363 361 358 359 360 361 361 359 359 361 362 363 362 362 362 363 362 363 363 364 365 367 367 367 367 366 365 364 362 361 360 359 359 359 359 358 356 356 356 355 355 356 356 357 358
321 318 325 340 347 347 342 333 327 327 330 331 335 347 351 345 342 345 347 353 360 359 355 355 356 358 364 364 362 358 355 354 353 356 356 355 356 357 357 360 362 363 363 363 362 362 363 364 365 363 361 359 359 361 362 362 364 363 363 363 363 362 364 366 366 367 366 366 366 364 363 362 360 360 359 359 359 358 357 357 355 355 355 355 356 357 358
315 315 327 340 343 340 336 329 325 326 330 332 335 346 351 346 341 343 346 347 351 353 354 355 357 361 364 364 361 357 354 353 353 355 356 356 355 354 355 358 361 362 363 363 361 362 361 361 363 365 364 363 361 360 360 359 360 360 362 363 362 363 362 364 365 366 366 367 366 365 364 364 362 362 361 359 359 358 358 358 356 355 355 355 355 356 357
315 318 329 338 337 333 330 326 325 326 330 335 340 349 352 346 340 340 344 346 347 348 350 353 355 359 361 360 357 354 351 352 352 354 355 355 355 355 355 356 358 359 360 359 360 361 361 361 363 364 364 365 367 367 365 362 359 358 359 360 361 363 363 363 364 364 366 367 366 366 366 364 363 363 362 361 360 359 359 358 357 356 356 355 356 355 356
315 319 328 335 334 330 327 326 325 327 335 343 347 350 351 345 340 339 341 344 345 346 348 350 351 352 353 352 351 350 350 352 353 352 353 352 353 354 355 355 355 356 357 358 359 360 361 363 364 365 366 367 370 371 369 367 365 363 360 358 358 360 360 361 363 364 365 366 366 366 365 365 365 364 363 363 362 360 360 360 359 358 357 356 356 356 356
318 324 330 335 335 329 325 326 327 330 340 348 347 345 344 340 336 336 339 342 343 343 345 346 346 346 346 346 348 348 348 350 351 351 352 353 353 353 354 355 355 354 355 357 359 359 360 361 362 364 367 368 370 370 368 368 369 367 363 361 359 357 357 360 362 363 363 364 365 366 366 365 365 365 364 364 363 362 361 361 361 360 359 358 357 358 358
326 331 332 333 333 329 325 328 331 335 341 343 340 339 339 336 331 331 336 339 341 342 343 343 344 343 344 345 346 346 346 347 348 348 350 352 353 352 353 354 355 354 355 356 357 357 357 358 360 360 363 365 367 366 366 367 368 367 364 364 362 358 355 357 361 363 363 364 365 365 366 366 365 365 365 365 364 363 363 363 363 362 361 360 360 359 360
329 332 332 331 332 330 328 329 333 335 335 335 335 336 335 332 329 328 331 334 337 341 342 342 343 343 344 344 345 346 346 346 346 347 348 350 351 351 351 352 354 354 355 356 356 356 356 356 358 357 358 361 362 361 363 366 368 368 366 364 364 363 358 356 359 362 363 364 366 366 366 366 366 365 365 365 365 366 365 364 364 364 364 363 362 361 361
327 328 329 328 329 329 328 329 331 331 329 329 331 333 334 332 330 327 327 328 331 335 340 342 343 343 343 344 344 345 346 346 346 346 346 346 347 348 349 350 352 353 355 356 355 355 355 355 357 356 356 357 357 358 361 364 367 368 368 367 368 368 361 357 358 362 363 366 366 367 367 366 366 366 367 367 367 367 366 367 366 365 365 365 364 364 363
325 325 323 321 322 324 326 327 328 327 326 327 329 331 331 331 329 328 326 326 327 328 334 339 343 343 343 343 344 345 347 347 347 347 347 346 345 346 347 349 351 353 354 355 354 355 355 355 355 354 354 354 355 356 359 364 366 367 368 370 371 370 366 359 359 363 365 367 368 368 368 368 367 368 368 368 368 368 368 368 367 367 367 366 366 365 365
322 322 320 317 318 321 321 323 323 322 324 326 327 329 331 329 327 327 327 327 325 324 326 332 339 342 342 343 344 346 347 349 348 348 350 349 345 344 347 349 351 353 353 353 354 354 354 354 354 353 353 353 353 354 357 361 364 365 367 369 370 372 368 363 362 364 366 367 369 370 370 370 369 369 369 369 369 369 369 369 368 368 368 367 366 366 366
319 321 319 316 317 318 319 321 322 322 323 325 323 324 328 329 326 326 327 328 328 326 323 326 332 338 341 342 343 345 347 349 348 350 351 350 347 345 347 348 351 353 352 352 352 353 353 354 353 352 352 352 351 352 355 358 361 365 366 368 370 372 369 365 365 366 367 369 371 371 371 371 371 371 372 371 370 370 370 370 370 370 369 368 368 368 367
317 319 318 315 316 318 317 319 321 321 322 324 322 321 324 326 326 326 326 326 328 328 326 325 329 335 340 342 343 344 346 346 347 350 349 347 345 346 347 348 349 351 351 352 352 352 353 352 352 351 352 351 350 350 352 355 359 362 365 367 369 371 371 369 368 368 369 370 371 371 370 368 367 367 368 370 371 372 371 372 371 371 370 370 370 369 368
316 317 316 316 317 318 316 316 317 317 318 320 321 321 322 322 324 326 326 324 325 326 327 326 326 332 339 342 342 344 345 345 346 348 345 342 343 345 348 349 348 349 351 351 352 351 352 352 352 351 350 350 349 349 350 354 357 361 365 368 368 369 372 372 372 371 372 370 370 369 367 363 359 357 358 363 368 369 368 370 372 372 371 370 370 369 368
314 313 313 315 315 315 314 314 315 315 316 317 319 320 322 322 323 326 328 326 325 325 326 325 324 330 338 342 342 343 345 343 343 344 344 343 343 345 348 349 349 350 351 351 351 351 352 351 350 350 349 348 347 347 349 352 355 360 364 366 367 368 370 373 373 373 371 368 366 365 362 360 357 353 352 354 359 362 365 367 370 370 371 371 369 368 367
311 311 312 312 312 312 312 312 313 313 315 317 317 318 321 324 326 327 329 328 326 327 327 325 323 326 334 338 340 344 345 342 341 343 345 344 344 347 349 350 349 350 351 350 351 351 350 350 350 349 348 347 346 347 349 350 353 358 363 365 365 367 368 371 373 372 370 366 362 358 355 353 354 354 350 344 342 346 353 358 362 363 362 362 361 358 357
310 310 310 310 310 311 311 311 312 312 313 315 317 319 321 324 326 328 328 327 327 327 326 325 322 322 327 334 338 341 342 341 342 344 344 343 345 348 349 349 350 350 350 350 350 350 350 349 349 348 348 347 347 349 350 349 351 357 362 363 364 367 368 369 369 369 367 363 357 353 350 348 348 350 348 341 334 334 338 343 347 348 347 347 347 345 344
309 309 309 310 310 310 310 311 312 312 313 315 319 321 322 322 323 324 324 323 324 323 323 325 324 321 323 331 335 338 340 341 342 343 342 343 344 346 347 349 350 350 350 350 350 350 350 349 348 348 347 347 348 349 350 349 351 355 359 360 361 362 365 368 367 363 359 356 351 348 346 345 343 342 341 339 335 333 332 334 335 336 336 336 338 337 336
309 309 310 310 311 311 311 312 312 313 315 317 318 319 320 318 318 320 320 319 320 320 319 322 322 320 324 332 336 337 340 342 342 341 341 342 344 345 347 349 349 348 349 349 349 349 348 346 345 345 346 347 348 349 349 350 352 355 357 356 354 354 358 361 361 358 353 350 347 344 342 340 339 337 335 334 334 333 332 332 332 332 333 334 333 333 332
311 311 311 311 312 312 312 312 313 313 314 316 316 316 316 316 316 319 321 322 321 321 321 321 320 321 327 334 336 338 340 341 340 339 340 340 342 344 346 347 348 347 347 347 347 346 344 341 341 343 345 347 348 348 349 350 352 352 351 350 350 350 352 354 355 352 348 346 344 342 339 337 336 335 335 334 333 332 332 332 333 333 334 334 334 334 334
312 312 312 312 311 311 311 311 312 312 312 313 314 315 316 316 316 319 323 323 324 324 324 322 319 319 324 332 337 340 342 342 340 339 339 338 340 342 342 343 344 344 344 345 344 341 339 337 338 339 343 346 347 346 347 349 351 350 349 347 347 347 348 350 350 348 345 342 340 339 337 337 337 336 336 335 334 334 334 333 333 333 334 334 335 335 335
313 314 315 314 312 312 311 311 311 312 312 313 313 314 315 316 317 320 324 325 326 325 324 323 321 319 322 331 337 339 340 340 339 338 337 336 336 337 338 339 339 339 338 338 339 337 336 335 335 335 340 345 346 345 345 347 348 349 348 346 345 346 346 347 347 345 343 341 340 339 339 339 338 338 337 337 336 335 334 333 332 332 333 335 335 335 335
313 316 318 318 316 314 313 312 312 312 313 313 314 315 315 316 317 319 323 326 327 325 324 325 324 321 323 331 338 339 337 338 337 335 334 332 331 331 331 332 332 331 330 331 333 334 334 334 334 335 339 344 346 344 344 343 344 345 345 344 344 345 345 344 344 343 342 341 341 340 340 340 339 338 338 338 338 335 332 330 328 327 329 332 334 335 334
313 315 318 320 319 316 314 314 314 313 313 314 315 316 316 316 317 317 320 325 326 324 325 326 324 321 324 333 338 337 336 335 333 332 330 329 327 326 326 326 326 326 325 326 329 330 331 332 333 336 339 343 345 344 343 341 341 342 341 341 341 342 342 341 340 340 340 340 340 340 339 340 339 338 338 339 338 335 333 331 329 327 327 330 332 334 334
313 314 316 318 319 318 317 315 315 315 315 316 316 316 316 316 317 317 321 325 326 326 326 324 320 320 327 334 335 335 335 333 330 328 326 325 324 324 323 323 323 323 323 324 326 327 328 329 331 334 338 341 342 342 341 341 340 339 338 339 339 338 338 337 337 337 337 336 336 336 336 336 337 337 338 338 337 337 336 335 333 331 331 331 331 331 333
312 312 313 314 316 317 318 317 317 317 317 317 318 318 318 318 318 318 321 324 326 326 324 320 318 324 331 333 332 333 333 330 327 325 323 322 321 321 321 321 322 322 322 323 324 325 327 328 330 333 335 338 339 339 339 339 338 337 336 336 335 335 334 334 333 333 332 331 331 331 331 331 331 332 333 334 334 335 335 334 333 331 330 330 329 330 331
311 311 311 311 312 314 315 316 317 318 319 319 319 318 318 318 319 319 321 324 324 322 320 320 324 329 331 329 328 328 327 325 324 322 321 320 320 319 320 320 321 321 322 321 322 323 325 326 328 330 332 334 336 336 336 337 337 336 335 333 333 332 331 330 330 329 328 327 327 327 326 326 325 326 327 327 327 328 328 327 326 326 325 325 326 328 329
310 310 310 310 311 311 312 313 314 316 319 321 322 322 320 320 320 321 323 323 321 319 320 325 327 328 326 324 324 323 321 320 319 319 318 318 318 318 318 319 319 319 320 320 319 321 323 324 326 328 330 330 332 333 333 333 333 333 333 332 330 329 328 327 326 325 325 324 324 323 323 322 322 322 322 322 322 321 322 321 320 320 320 320 322 324 325
310 310 309 309 310 310 311 312 312 313 315 319 322 324 324 323 321 320 320 319 319 320 325 326 325 323 321 321 319 318 318 317 316 315 315 316 316 316 317 318 318 319 319 319 318 319 320 321 323 325 326 326 327 328 329 330 330 330 329 329 328 327 325 324 323 322 322 321 320 320 319 319 318 318 317 318 317 317 317 316 316 315 315 316 317 318 319
310 310 309 309 309 309 309 310 311 312 313 314 317 319 320 320 320 321 322 321 322 324 324 323 321 319 318 317 316 316 315 314 314 314 314 314 314 315 315 316 317 318 318 318 317 318 318 319 320 321 322 322 322 323 324 325 326 326 326 325 325 324 323 322 321 320 319 318 318 317 316 316 315 315 314 314 314 314 314 313 312 312 312 312 312 313 314
310 310 309 309 309 309 308 309 309 310 311 312 313 315 315 316 316 318 319 319 321 323 322 319 318 317 316 315 315 314 314 313 313 313 313 313 313 313 313 314 315 316 316 316 316 316 317 318 318 318 319 320 320 320 321 321 321 321 321 321 321 321 320 319 319 318 317 317 316 315 315 314 314 313 312 312 312 311 311 311 310 310 310 309 309 310 310
310 309 309 309 309 308 308 308 308 308 309 310 311 312 313 313 313 314 314 314 316 317 317 316 316 316 315 315 314 314 313 313 312 312 312 312 312 313 312 313 313 314 315 315 315 315 316 316 316 317 317 317 317 318 318 318 318 318 318 318 317 317 317 317 316 315 315 315 314 314 313 313 312 312 311 310 310 309 309 308 308 308 308 307 307 307 308
310 309 309 309 309 308 308 308 308 308 308 308 309 309 310 311 312 312 312 312 312 313 313 313 313 312 312 312 312 311 311 311 311 311 311 311 311 312 313 313 312 313 313 313 313 313 314 314 314 315 315 315 316 316 316 316 316 316 315 315 315 314 314 314 313 313 313 312 312 311 311 311 311 310 309 309 308 307 307 306 306 306 305 305 305 306 306
310 309 309 308 309 308 308 308 308 308 307 307 307 307 308 308 309 309 310 310 310 310 311 311 311 311 310 310 310 309 309 309 309 309 310 310 310 311 312 312 311 311 311 311 311 312 312 312 313 313 313 313 314 314 314 314 314 314 314 313 313 312 312 311 311 310 310 309 309 309 308 308 308 307 307 306 306 305 305 304 304 304 304 303 303 304 304
309 309 308 308 308 308 308 308 308 308 308 307 307 306 307 306 306 306 306 307 307 308 308 309 309 310 310 310 310 309 309 309 309 309 308 309 309 310 310 311 311 311 310 310 310 311 311 311 311 311 311 311 311 312 312 312 312 313 313 313 312 312 311 310 309 309 308 307 307 306 306 305 305 304 303 303 303 302 302 301 301 300 301 301 301 301 302
309 308 308 308 308 308 307 307 307 308 308 308 307 307 307 306 306 305 305 305 306 306 306 306 307 307 308 308 309 309 309 309 309 309 309 309 309 309 309 309 310 310 309 309 309 309 309 310 310 310 309 309 310 310 310 310 310 311 311 311 311 311 311 310 309 308 308 307 306 306 305 304 304 303 303 302 302 301 301 300 300 299 299 299 298 298 298
310 309 308 308 308 307 307 307 307 307 307 307 307 307 307 307 306 306 306 305 305 305 304 304 304 305 305 306 306 307 307 308 308 309 309 309 309 309 308 308 308 309 309 308 308 308 308 308 308 308 308 308 308 308 308 308 309 309 309 310 310 310 310 310 309 308 308 308 307 306 306 305 304 304 303 303 302 302 302 301 301 301 300 299 299 298 297
310 310 309 309 308 308 307 307 306 306 305 306 307 307 307 306 306 306 306 306 306 305 304 303 302 302 303 304 304 305 305 305 306 306 307 308 308 308 308 308 308 307 307 307 307 307 307 307 307 307 307 307 307 307 307 307 307 308 308 308 308 309 308 308 309 308 308 308 308 307 306 306 305 304 304 304 303 303 302 302 301 301 301 300 300 299 298
310 309 310 310 309 308 307 307 307 306 306 306 306 307 306 306 306 306 305 306 306 306 305 304 303 302 302 302 303 303 304 304 304 305 305 305 306 306 306 306 306 306 306 305 305 305 305 305 305 305 305 305 305 305 306 306 306 306 306 307 307 306 307 307 307 307 307 307 307 307 307 306 305 305 304 304 303 303 302 302 301 301 301 300 300 299 299
309 309 309 309 310 309 308 308 308 308 307 307 307 307 306 306 305 305 305 305 305 305 305 305 305 304 302 302 302 302 302 303 304 304 304 304 304 305 305 305 305 305 304 304 304 304 304 304 304 304 304 304 304 304 304 305 305 305 305 305 305 305 305 305 305 305 306 305 305 305 305 305 305 305 304 303 303 302 301 300 300 300 299 299 299 299 298
308 308 308 308 308 309 309 309 309 309 309 308 308 307 307 306 306 306 306 305 305 305 304 304 304 304 303 302 302 302 301 302 302 302 302 302 303 304 304 304 304 304 303 303 304 303 303 303 303 303 303 303 303 303 303 303 304 304 304 303 303 303 303 303 303 303 303 304 304 305 304 304 303 303 303 302 302 301 300 299 298 297 296 296 296 297 297
306 306 306 306 306 307 308 308 309 309 308 308 308 307 307 307 307 307 307 306 306 305 305 304 303 303 302 302 302 302 302 301 301 300 300 301 302 302 302 303 303 303 303 303 303 303 302 302 302 302 302 302 302 302 302 302 302 303 303 302 302 302 302 302 301 301 301 302 302 303 304 304 303 303 303 302 302 301 300 299 298 297 296 295 294 294 294
304 304 304 305 305 304 304 305 306 307 307 307 306 307 307 308 308 307 306 305 305 305 304 304 303 303 302 302 302 302 302 302 302 301 301 301 301 301 301 301 302 302 302 302 302 302 302 302 301 301 301 301 301 301 301 301 301 301 301 301 301 301 301 301 301 300 300 300 300 301 301 301 301 301 302 302 301 301 299 299 298 298 297 296 295 294 294
304 303 303 303 303 302 302 302 303 305 306 306 306 306 306 307 307 307 306 305 304 304 304 304 303 303 302 302 302 302 302 302 302 302 302 301 301 300 300 301 301 301 301 301 301 301 302 301 301 301 301 301 301 301 301 300 300 301 300 300 300 300 300 300 299 299 299 299 299 299 299 299 299 300 300 300 300 300 299 298 298 298 297 297 296 296 294
Wind_Speed
20 20 21 20 16 14 16 16 19 20 16 16 14 9 9 9 8 8 10 11 11 7 8 9 6 4 5 8 9 8 11 15 17 18 20 20 19 18 18 18 18 18 17 17 16 16 17 22 25 26 28 30 31 32 33 35 36 37 37 37 37 37 36 38 39 40 39 38 38 39 38 38 39 40 39 39 39 39 39 39 40 41 41 40 40 41 42
21 19 16 14 12 11 11 12 20 21 16 17 14 8 9 9 8 9 10 11 10 8 8 7 4 1 2 2 6 7 10 14 17 19 21 20 19 18 18 19 19 18 18 17 17 16 16 19 23 24 26 29 31 32 33 34 35 36 37 36 36 36 37 39 40 39 38 37 36 37 37 38 39 39 39 39 39 39 39 40 40 41 40 40 40 41 41
14 13 11 11 10 9 8 5 14 22 18 15 13 10 8 7 7 7 8 9 7 6 3 2 4 5 6 5 5 8 9 13 16 18 19 19 18 18 18 18 16 15 15 15 16 16 16 20 24 26 27 29 31 31 32 33 32 33 35 35 35 36 37 38 37 37 37 36 36 36 37 38 39 39 40 39 38 39 39 40 40 40 40 40 41 41 41
8 9 13 16 15 9 6 12 4 12 17 12 10 8 4 2 5 5 6 6 6 4 2 7 7 8 9 7 6 7 7 10 14 17 17 17 18 18 17 16 14 14 14 14 16 16 17 21 25 27 28 28 29 30 31 31 30 30 31 33 33 34 35 36 36 36 37 36 36 36 37 38 39 39 38 38 38 38 39 40 40 40 40 41 42 41 40
7 10 16 17 13 5 5 9 13 10 3 6 5 4 7 7 1 3 4 6 6 5 7 10 9 10 11 8 5 5 6 8 10 13 15 15 15 15 16 15 14 14 13 13 15 16 18 22 27 29 30 30 30 31 31 31 30 30 30 31 33 35 36 36 36 37 37 36 36 37 37 38 38 37 37 38 39 39 39 40 40 40 41 41 41 41 41
7 13 17 12 5 4 1 1 11 16 9 15 15 9 11 14 10 4 2 3 2 3 9 14 13 11 10 8 8 8 6 8 8 8 9 9 9 9 10 10 10 10 9 9 12 16 20 24 27 28 30 30 31 32 32 32 32 32 31 31 33 35 36 37 37 37 37 37 37 37 38 38 37 37 38 39 39 39 39 39 39 40 40 41 41 42 42
6 10 9 4 1 1 2 1 10 15 11 13 17 17 17 18 16 13 8 6 5 3 11 16 15 14 14 14 16 14 10 10 12 12 11 10 11 9 8 7 7 6 7 7 8 12 17 20 22 24 26 27 29 29 30 31 31 32 32 32 32 34 36 37 37 37 37 36 36 37 37 38 37 38 39 39 39 39 39 39 40 40 40 40 41 42 42
3 5 4 0 5 4 5 7 12 17 15 12 14 18 17 18 17 14 11 8 6 5 10 13 13 16 18 18 17 15 13 13 14 14 13 12 13 11 9 9 8 7 8 9 9 10 12 16 18 21 23 25 25 26 28 30 30 31 31 31 31 32 34 36 36 36 36 36 36 37 37 37 37 38 39 40 40 40 39 38 39 39 40 40 40 41 41
1 3 3 3 4 5 7 9 12 12 10 11 8 8 10 15 16 13 11 10 8 6 5 6 11 17 20 16 12 12 13 13 13 15 14 13 14 13 11 12 12 13 15 16 14 14 13 10 8 12 18 23 25 25 27 28 29 30 30 30 31 31 32 35 36 37 37 37 36 37 37 37 38 38 39 40 40 39 38 38 37 38 39 39 39 40 39
4 4 3 3 3 3 5 11 16 13 7 9 8 2 8 14 16 14 13 11 10 9 9 6 4 16 18 11 7 9 10 10 12 15 14 14 14 13 12 14 15 18 22 21 19 21 21 19 15 9 7 15 21 23 26 28 28 28 28 30 31 31 32 34 36 38 39 39 38 38 38 38 38 38 39 39 39 39 39 39 39 40 39 38 38 38 38
4 4 3 3 1 1 7 16 20 18 13 10 7 3 8 12 15 15 13 13 11 12 11 10 4 13 14 7 4 6 8 10 12 13 14 14 14 15 16 17 17 19 22 23 23 24 23 20 18 16 12 8 9 10 14 20 24 26 28 30 31 32 32 34 36 39 40 41 40 39 39 39 39 39 39 40 39 39 40 40 40 40 38 37 37 38 38
5 4 2 1 0 1 10 18 19 20 18 9 2 6 5 8 13 13 12 13 13 12 11 10 10 12 9 5 4 5 8 11 12 13 14 13 13 14 17 19 19 21 23 24 22 21 20 18 18 17 15 13 11 8 3 4 11 18 24 28 31 33 33 33 36 38 39 41 42 41 41 40 39 39 40 39 38 38 38 38 38 37 37 37 37 37 37
5 4 2 1 0 3 12 18 20 20 13 3 6 6 1 6 10 11 10 11 12 12 12 11 10 9 7 6 6 7 10 12 13 12 13 14 16 17 18 21 22 21 22 22 20 20 20 20 20 19 16 14 14 12 9 8 5 5 11 19 26 30 32 33 34 36 38 40 41 42 42 42 40 39 38 37 37 37 36 36 35 35 36 36 36 35 35
3 3 2 1 1 4 13 19 19 14 5 5 5 3 1 6 9 9 10 11 10 12 13 12 9 9 9 10 10 10 11 11 11 12 12 14 16 18 21 24 23 21 19 20 21 22 23 23 22 20 18 16 15 13 12 13 12 8 5 9 16 23 26 29 32 35 37 38 39 40 40 40 38 36 36 35 35 35 35 34 34 34 34 34 33 33 32
2 2 2 3 1 5 14 16 13 10 8 5 3 3 4 8 10 9 10 11 11 11 11 12 11 10 11 11 10 10 11 11 11 11 11 12 12 14 16 19 21 20 18 18 18 20 21 22 22 21 20 17 15 14 15 16 14 10 8 7 10 17 24 26 28 32 35 37 38 37 37 37 37 35 34 34 33 34 34 32 32 32 32 31 30 29 29
2 2 3 3 1 3 9 9 6 6 6 4 3 5 6 8 10 8 9 10 12 11 10 10 10 10 10 10 8 8 9 9 9 10 10 10 10 11 13 15 18 18 15 13 15 18 20 20 20 20 20 18 15 15 17 17 15 12 10 8 7 13 21 25 27 29 32 34 36 36 36 36 36 34 32 32 31 32 33 32 30 29 28 28 27 26 25
1 1 2 2 1 2 3 5 5 7 8 8 7 8 8 7 8 7 8 10 12 12 10 9 9 9 9 8 8 7 7 7 8 8 8 9 10 11 13 15 18 17 14 13 14 16 18 19 18 18 19 18 16 17 18 18 16 14 13 10 7 10 16 23 25 27 29 32 33 34 34 34 34 32 31 30 30 30 31 30 28 26 25 25 25 24 24
2 1 3 7 6 4 6 6 6 8 9 7 7 8 8 6 7 7 9 9 10 11 10 9 9 9 8 8 9 8 7 7 8 8 8 9 11 12 13 15 17 18 16 15 15 15 17 18 17 16 17 17 17 17 18 18 17 15 14 11 8 9 12 18 22 23 25 27 29 29 30 32 32 32 32 32 30 29 28 28 27 25 23 23 23 23 22
4 1 6 11 9 6 7 7 8 10 10 8 7 7 5 3 5 7 9 10 10 10 10 10 9 9 9 9 9 8 8 7 8 9 9 9 11 13 14 15 17 18 16 14 13 13 14 15 15 15 15 15 16 17 17 18 17 15 14 12 9 8 11 15 18 21 22 24 24 24 25 27 28 28 30 31 29 27 26 25 23 21 21 21 21 21 21
5 1 6 12 8 1 4 6 6 7 9 9 9 7 3 2 4 6 7 8 8 9 9 9 9 9 10 10 9 7 7 7 7 7 7 8 10 13 16 17 16 16 14 12 12 12 13 13 13 14 14 14 15 16 17 17 18 16 14 13 11 7 11 14 17 20 22 22 22 21 20 20 20 20 22 24 24 25 26 25 23 22 21 21 22 22 22
4 1 8 14 11 5 2 4 5 4 6 8 10 11 8 5 4 5 6 6 5 7 8 8 8 9 9 9 9 8 7 7 8 7 6 8 10 11 14 16 14 13 12 11 11 11 11 10 11 11 12 14 14 15 16 16 16 16 14 12 10 6 10 14 16 19 21 21 22 22 21 19 17 14 13 16 18 20 22 24 24 24 24 24 25 24 22
3 3 7 9 7 6 9 10 7 6 6 7 9 10 10 10 7 5 5 5 4 5 7 7 7 8 8 8 8 8 6 6 7 7 6 7 9 11 14 15 14 12 11 10 10 10 9 8 8 9 11 13 14 14 14 15 15 15 13 11 7 3 6 11 15 17 19 21 23 25 24 22 19 15 10 10 13 15 17 20 22 23 23 23 23 22 19
7 7 7 6 5 6 11 12 10 8 6 5 8 9 9 10 10 6 5 6 6 6 7 7 6 6 6 6 7 7 6 7 9 11 10 9 9 9 13 15 13 11 11 10 10 10 8 6 7 8 10 12 13 13 12 13 13 12 10 7 5 2 3 9 14 18 20 22 24 25 24 24 23 20 18 14 10 9 9 12 15 17 18 18 17 17 17
10 9 7 7 9 11 13 13 13 11 6 5 8 9 7 7 8 6 6 6 7 7 7 8 9 8 6 5 6 6 6 7 10 12 13 13 11 9 11 12 11 9 9 9 8 7 6 5 6 7 9 11 12 12 10 11 12 10 7 4 2 3 4 7 13 18 21 24 24 24 24 24 24 25 25 24 21 17 13 11 10 11 12 12 13 13 12
10 9 9 10 12 14 13 13 13 12 9 7 8 8 5 5 5 4 5 6 6 7 8 9 11 12 10 7 6 7 6 7 10 12 13 15 14 10 8 7 7 6 7 7 7 5 5 6 7 8 10 11 12 12 10 10 11 9 4 2 1 5 7 8 12 18 22 24 24 24 25 25 25 26 27 26 25 24 23 21 19 18 17 17 17 17 16
12 12 11 12 15 14 11 10 12 10 9 9 7 5 4 5 4 5 5 4 4 6 7 7 10 14 14 9 6 7 7 8 11 12 11 12 13 11 5 2 4 5 5 6 6 5 6 7 8 10 10 10 11 12 11 10 9 5 5 6 5 6 8 10 14 18 21 23 23 24 26 26 25 24 25 27 28 27 26 24 23 22 22 20 18 19 19
13 12 10 12 15 12 8 9 10 8 5 6 4 3 4 6 6 6 6 5 5 6 6 6 10 14 14 10 8 8 7 7 9 10 9 9 11 11 6 3 5 7 7 7 8 8 9 9 10 11 10 9 10 10 9 6 4 6 9 10 10 10 9 11 15 19 21 23 25 25 25 24 24 24 24 25 26 26 25 24 23 22 23 23 22 21 22
13 11 9 11 15 12 6 7 8 7 5 6 6 5 6 6 6 5 4 4 5 5 5 6 9 9 9 8 7 6 5 5 6 6 7 8 9 10 9 8 7 7 7 9 11 12 12 12 12 12 11 9 8 7 5 5 7 10 13 13 14 14 13 13 16 19 21 23 25 26 25 25 26 26 25 24 24 24 25 25 24 23 23 23 23 22 22
13 11 10 13 15 14 9 7 8 8 8 9 9 8 7 6 6 5 5 4 4 3 3 6 9 10 9 7 4 2 3 3 4 5 7 9 10 10 10 9 9 9 10 11 12 12 13 13 13 13 12 9 6 6 6 8 11 13 15 16 17 16 16 16 17 19 21 22 23 25 27 27 28 27 25 25 25 25 24 24 23 23 23 23 23 22 22
16 13 11 11 10 10 11 10 8 8 9 9 9 8 7 6 6 6 5 5 4 2 1 4 7 10 12 8 2 2 3 4 6 8 10 13 14 14 13 12 12 12 12 12 12 11 12 13 13 13 11 7 5 7 9 10 13 15 16 16 17 17 17 18 19 20 21 23 25 26 26 26 26 27 26 25 24 25 24 24 23 23 23 23 22 23 22
18 14 10 9 8 9 11 10 6 6 8 8 8 9 8 7 7 6 5 5 4 3 3 3 3 7 10 7 3 5 6 8 10 12 14 16 18 18 18 18 14 10 11 13 14 11 10 12 13 13 10 6 5 6 8 10 13 16 18 18 18 18 18 20 23 23 23 23 23 23 23 22 23 25 26 25 24 24 25 24 24 24 24 23 22 22 21
18 16 13 7 7 8 8 7 5 6 7 7 8 9 8 7 7 7 6 5 5 4 3 3 3 8 9 5 6 7 9 12 13 14 16 18 18 20 21 21 19 16 16 17 15 13 12 13 13 13 11 9 7 7 11 15 19 21 23 24 24 24 23 25 27 27 26 25 23 21 21 20 20 20 21 21 22 23 23 22 22 22 22 22 20 18 17
17 16 15 11 6 6 8 6 5 5 6 6 7 8 7 6 7 7 6 5 5 5 4 3 6 10 7 4 8 10 11 12 13 14 15 16 17 18 20 22 22 22 21 20 17 15 13 13 13 14 15 14 13 13 16 21 24 25 26 28 30 30 29 28 29 31 31 29 27 25 25 25 23 21 20 19 19 19 19 19 19 19 19 19 18 15 13
16 14 14 14 11 7 6 5 4 5 6 6 6 6 6 6 6 6 6 6 5 5 5 5 9 8 3 7 9 10 10 9 8 9 12 14 16 17 19 21 22 23 24 23 22 20 17 14 13 16 18 18 19 20 22 25 27 27 28 30 32 32 30 29 30 31 30 28 28 29 30 29 27 25 24 23 22 22 22 21 21 21 21 22 21 19 16
17 16 15 15 15 14 12 9 6 4 4 5 6 7 7 7 6 6 7 7 7 7 4 3 3 2 7 10 10 10 10 8 7 8 12 15 16 16 19 21 21 22 25 26 25 23 19 16 14 16 19 20 22 23 24 27 30 31 31 33 33 33 31 30 30 29 28 28 29 30 30 30 30 29 28 27 26 26 26 25 24 23 22 22 21 20 19
19 17 15 15 16 17 16 13 10 9 6 3 3 4 5 5 6 7 8 8 8 7 5 7 9 8 8 11 12 12 12 11 11 11 13 15 17 19 22 22 20 19 21 24 25 23 20 17 15 16 20 21 22 23 24 26 29 32 33 34 34 34 33 32 31 29 28 28 29 29 28 29 31 30 28 27 27 26 26 25 24 23 21 20 20 19 19
20 17 14 14 16 18 17 15 14 13 10 8 7 5 2 1 0 3 7 8 8 8 11 15 15 11 10 13 16 17 16 15 14 14 14 16 20 23 24 22 20 18 16 16 20 22 21 18 17 19 22 22 22 22 23 25 27 30 32 33 32 32 32 31 31 30 29 28 28 28 28 29 29 28 27 26 25 24 24 23 22 21 20 19 19 18 18
20 20 18 18 19 19 20 21 23 21 16 12 11 10 8 9 9 8 6 5 8 13 17 19 18 17 17 17 18 18 18 17 16 17 16 18 23 25 22 18 18 17 14 13 18 23 24 22 22 24 25 25 23 23 24 26 28 29 31 31 31 30 31 30 30 29 28 28 28 28 28 27 27 26 26 25 24 23 22 21 20 18 18 18 18 18 17
16 18 19 21 21 22 23 25 27 25 21 16 13 12 12 16 18 18 16 14 12 17 22 22 20 19 18 17 16 17 17 16 17 18 19 21 25 26 23 20 20 18 16 16 21 25 25 25 26 29 30 28 25 25 27 29 30 31 32 32 31 29 29 29 29 28 27 27 27 27 27 26 26 25 25 25 25 25 24 23 23 22 20 20 20 19 18
11 13 17 18 19 20 21 22 23 26 27 25 21 17 16 20 23 23 21 21 20 20 22 21 17 14 14 14 15 15 16 16 17 18 19 21 24 24 21 21 22 21 19 20 23 24 24 26 28 30 31 30 28 28 29 30 31 32 33 33 32 30 29 29 29 29 27 27 27 26 26 25 25 25 25 25 25 25 24 24 25 25 23 22 21 20 19
11 14 17 17 17 18 19 19 21 26 30 31 29 26 24 25 27 25 23 24 26 26 24 23 20 17 16 17 18 19 19 19 19 20 21 22 21 18 14 15 19 21 21 23 25 25 25 26 26 27 29 29 29 29 29 29 29 31 32 31 31 30 29 29 29 29 28 27 27 26 26 25 25 25 24 24 24 24 24 23 23 23 23 22 21 19 19
12 14 15 15 16 18 20 20 20 23 27 30 31 31 30 30 31 29 28 28 29 28 27 25 23 21 20 20 22 23 22 21 21 24 25 24 21 16 13 15 19 20 22 24 27 27 27 27 26 26 27 27 28 29 30 30 30 30 31 30 30 30 30 29 29 29 28 29 28 26 26 26 26 25 25 24 23 23 23 23 23 23 22 22 21 20 19
12 13 13 13 15 17 19 19 19 20 23 27 31 31 31 31 32 32 33 32 31 28 27 26 24 23 21 20 20 21 21 19 20 23 25 27 27 25 20 19 21 22 23 25 27 27 27 28 27 27 28 29 30 31 32 32 32 31 31 30 29 30 30 30 29 29 29 29 29 27 27 27 26 26 26 25 25 24 24 25 25 25 25 25 24 23 22
11 11 12 13 15 17 17 18 19 18 18 21 27 30 30 30 30 31 33 32 30 28 27 26 24 23 22 20 19 20 19 18 18 19 20 22 25 27 25 23 22 23 24 26 27 27 27 27 28 28 30 31 32 33 33 33 32 32 31 30 29 29 29 29 28 28 28 28 28 28 28 28 27 27 27 26 25 25 25 26 26 26 27 28 28 27 26
10 11 11 13 15 15 16 16 17 17 17 20 24 27 28 28 28 29 31 31 29 29 29 28 25 24 24 22 21 23 24 23 22 22 18 14 14 19 23 25 25 24 24 25 27 27 27 27 28 29 30 32 33 33 33 32 31 31 31 31 30 30 29 28 27 26 26 25 25 25 26 26 26 26 26 26 26 26 25 25 25 26 26 27 27 28 28
9 9 10 11 12 13 14 14 16 18 19 20 20 21 23 25 25 26 28 28 27 27 29 29 28 26 25 23 23 24 27 28 28 28 26 21 18 20 24 26 26 26 26 26 26 26 25 26 27 28 29 31 32 32 31 31 31 31 31 30 30 29 28 27 26 25 24 23 23 22 23 24 25 25 24 24 24 24 24 24 24 24 24 25 25 25 26
10 9 9 10 11 11 12 12 13 14 15 14 12 14 18 21 22 23 24 25 25 25 26 26 26 25 24 24 24 24 24 23 24 26 28 27 25 24 25 26 26 26 27 27 26 26 25 26 27 28 29 30 32 31 30 30 30 30 29 29 28 28 27 27 26 25 25 24 23 22 22 21 21 22 22 22 22 22 22 22 22 21 21 22 22 22 23
10 9 8 9 9 9 10 9 9 9 9 9 10 12 15 18 19 20 21 23 24 24 24 23 22 21 21 22 24 24 23 21 19 20 23 24 23 23 24 24 25 25 26 26 26 26 25 25 26 28 29 31 31 31 31 31 31 30 30 29 29 28 28 28 26 25 25 24 23 23 22 21 21 21 20 20 20 20 20 21 21 20 20 20 20 20 20
11 11 11 11 10 8 8 7 6 6 6 7 9 11 13 15 17 17 17 19 20 22 22 22 22 21 20 20 21 22 22 22 20 20 20 22 21 21 21 21 21 22 23 23 23 24 24 24 25 26 28 30 30 31 31 31 31 31 31 31 30 30 30 29 28 28 27 25 23 22 22 22 22 21 20 20 20 20 21 21 21 21 21 20 20 19 18
14 13 13 13 12 12 10 8 6 5 7 8 9 10 11 11 12 13 14 15 17 18 18 19 20 20 20 20 20 20 20 21 22 21 20 20 21 21 21 21 21 21 21 20 20 21 22 23 24 25 27 28 29 29 30 30 30 30 30 30 30 30 30 30 29 30 29 28 27 25 23 22 21 19 18 18 19 19 19 20 20 20 20 20 20 19 17
15 14 14 14 15 16 16 13 9 5 6 8 11 12 12 11 11 11 13 15 15 15 15 16 17 16 16 17 17 18 18 18 19 19 19 20 20 20 20 20 21 21 21 21 20 20 21 22 23 25 26 27 27 28 29 30 30 30 30 30 29 29 29 29 29 29 29 29 29 28 26 24 22 21 20 19 19 18 18 18 17 17 18 19 19 18 17
15 16 17 18 19 19 20 21 19 13 7 5 8 10 11 11 10 10 12 13 14 13 12 12 13 14 15 16 16 16 17 17 17 17 18 18 19 19 19 19 19 20 21 21 21 21 22 23 23 24 24 25 26 27 28 30 30 30 30 30 30 29 29 29 29 29 29 29 29 29 28 27 26 25 23 21 19 17 17 17 16 16 16 16 17 17 17
Wind_Direction
291 282 275 272 266 259 268 255 211 190 185 187 189 199 185 154 157 203 228 221 209 227 252 247 234 186 149 161 165 152 156 167 170 171 174 178 177 175 177 178 177 180 181 181 180 180 181 182 183 185 188 192 194 194 194 195 196 197 196 197 199 199 200 203 207 210 211 210 210 210 212 214 215 216 217 217 218 218 218 218 218 219 219 220 220 221 223
295 286 279 274 265 264 284 254 200 185 191 193 184 190 190 173 180 198 204 207 209 224 234 224 217 213 59 131 145 135 148 162 167 172 174 176 177 176 179 182 183 182 180 178 177 176 179 183 183 184 187 190 193 194 194 195 196 196 196 196 198 199 201 205 207 209 210 210 210 210 211 214 216 216 217 217 218 218 219 219 220 220 220 221 221 222 223
293 292 314 332 310 283 310 302 192 185 192 196 185 184 191 192 201 189 172 185 219 260 251 127 89 76 64 62 107 132 158 165 163 168 172 173 174 177 183 185 182 178 175 174 175 176 181 184 184 185 188 191 194 195 196 196 196 195 195 196 198 199 203 206 207 207 208 209 210 211 212 214 216 217 217 217 218 218 219 220 220 220 220 221 222 223 223
291 304 336 337 312 289 1 18 340 205 194 190 186 169 141 201 214 157 127 161 218 256 119 84 67 76 77 63 77 107 140 159 159 162 167 172 174 177 182 180 175 175 175 174 176 180 184 184 184 188 190 192 195 197 198 199 199 197 196 196 199 201 204 207 207 207 208 208 209 211 212 214 215 217 217 217 217 218 219 220 221 220 220 221 222 223 224
287 313 328 318 307 326 38 18 346 310 224 127 113 92 42 13 3 136 159 193 211 204 129 91 67 62 62 49 42 74 109 127 144 156 159 165 171 172 173 171 172 175 175 175 180 181 182 184 187 189 190 191 196 198 199 200 201 201 199 197 199 202 205 206 207 207 207 208 209 210 212 214 215 216 216 217 217 218 219 220 221 221 221 221 222 223 223
289 311 319 312 329 38 80 350 359 353 26 84 88 64 24 16 13 353 258 182 169 165 117 99 89 75 64 54 44 45 72 93 97 107 119 130 135 139 149 156 165 171 167 169 176 178 182 186 189 190 191 193 196 197 198 199 200 201 201 200 199 201 203 205 206 207 207 207 208 210 212 213 214 214 215 217 218 218 220 220 221 222 223 223 223 223 224
283 307 325 331 157 200 249 328 13 6 23 74 76 56 29 14 7 355 355 37 42 81 106 103 102 95 80 64 51 44 50 73 83 81 78 84 90 91 99 106 111 127 136 143 158 173 184 187 188 190 193 196 197 197 197 199 200 201 202 202 201 201 202 204 205 205 206 206 207 209 211 211 212 213 214 216 217 218 219 220 221 223 224 224 224 225 225
281 325 350 220 217 269 337 8 6 4 5 12 39 51 31 8 7 2 357 22 45 82 101 103 105 98 82 65 50 40 43 57 73 80 77 78 82 81 82 86 88 96 105 112 127 153 178 188 191 195 198 198 196 197 199 200 202 203 204 205 205 203 202 203 205 205 205 205 206 208 210 210 210 211 213 215 216 216 218 220 222 224 226 226 226 226 226
328 343 316 272 266 312 357 3 345 346 349 333 349 56 37 7 9 5 358 19 34 36 58 94 105 92 78 65 44 30 36 48 64 75 76 75 77 77 77 79 79 78 80 84 90 99 109 121 149 186 200 200 197 196 199 201 203 204 206 208 208 206 203 203 204 204 205 205 206 207 208 208 209 211 212 214 215 215 216 219 221 224 226 227 228 229 228
347 347 312 321 341 337 347 332 316 310 304 291 285 85 47 9 1 1 6 17 27 26 3 328 84 85 74 63 36 19 28 42 58 69 71 68 69 69 67 69 70 70 72 73 72 73 73 67 63 77 152 188 195 196 199 201 203 205 208 211 211 209 206 204 204 204 205 205 206 207 207 208 210 211 212 214 215 214 215 217 220 223 225 227 229 231 231
309 324 302 314 21 57 333 321 312 313 317 290 251 111 47 0 347 356 10 14 23 39 18 335 16 83 82 76 39 13 26 43 53 64 65 61 61 60 57 61 65 68 70 69 61 57 55 49 46 52 69 107 150 179 197 203 205 208 211 212 212 212 210 207 206 205 205 205 206 207 208 210 210 211 212 214 215 214 215 216 219 222 223 226 229 231 232
281 291 282 296 97 332 322 318 312 312 313 298 166 95 47 341 335 347 10 21 24 36 34 21 43 69 83 92 59 18 31 47 50 56 60 57 56 54 51 52 57 62 63 61 55 51 47 42 39 40 47 58 60 53 60 200 214 219 219 217 216 215 214 211 208 207 205 205 205 207 209 211 211 211 213 213 213 214 215 217 219 221 222 224 227 229 231
277 277 270 277 133 325 323 320 314 308 306 338 75 79 42 316 330 345 9 27 32 35 43 50 51 49 52 64 52 33 42 50 48 51 57 55 53 52 47 44 47 53 57 58 55 50 44 41 38 36 39 43 38 33 40 38 5 279 242 231 225 221 217 213 210 208 207 206 206 207 209 211 212 212 212 212 212 213 214 215 217 220 222 224 227 229 231
279 270 276 285 163 336 331 325 319 321 347 68 59 54 338 322 333 354 13 24 34 39 47 57 58 50 43 41 38 33 37 46 48 49 53 54 50 48 45 41 41 43 48 51 50 46 41 39 38 37 41 42 34 32 33 19 2 351 318 260 239 229 222 216 211 209 208 208 208 208 209 209 210 211 211 211 211 212 212 214 216 218 221 223 226 229 231
312 329 9 28 45 321 331 334 339 360 39 64 13 20 22 346 345 4 18 23 29 37 50 56 54 52 46 38 36 32 29 35 41 43 48 54 52 49 46 42 41 42 44 45 45 43 40 38 36 36 38 37 30 27 20 4 353 349 342 310 258 237 227 219 214 211 208 207 207 207 207 208 208 209 209 209 209 210 210 211 214 217 220 222 224 228 230
359 5 21 42 148 282 332 349 1 15 44 67 38 35 32 359 348 2 18 24 25 29 45 53 48 49 47 38 35 35 32 34 36 36 40 45 48 50 49 46 45 48 52 52 48 43 40 38 36 34 34 31 24 16 7 359 354 348 338 326 287 247 230 221 217 214 210 207 205 205 205 205 206 206 207 206 207 208 209 209 211 214 217 218 221 225 228
332 302 339 355 223 207 14 20 13 8 26 45 44 44 40 8 346 354 11 20 22 24 33 43 42 41 38 30 27 29 30 34 38 41 44 43 44 45 43 41 42 45 51 53 47 41 38 38 36 33 32 30 21 9 1 358 355 348 341 331 301 261 237 224 219 215 210 206 204 204 203 202 202 202 202 203 205 206 207 208 209 212 214 216 218 221 225
296 287 7 3 6 50 56 40 22 15 17 23 35 49 48 8 344 358 7 7 13 19 24 33 35 29 24 22 20 14 9 19 30 31 33 36 38 39 36 33 34 38 43 46 43 38 34 32 31 30 30 29 20 6 358 357 353 346 344 336 305 266 242 228 219 212 207 203 201 202 201 200 200 200 200 201 203 204 204 206 208 210 211 212 215 220 223
318 8 30 12 8 48 62 41 22 11 3 3 22 48 60 12 359 14 6 355 1 11 17 25 26 19 19 20 15 8 4 10 20 23 24 23 24 27 27 27 32 38 42 41 39 36 29 23 22 22 22 21 15 3 356 354 350 342 340 339 318 266 234 221 212 207 202 198 195 195 194 195 197 199 200 201 201 200 201 202 204 206 208 210 213 216 220
310 329 30 5 341 240 116 79 50 14 356 355 359 2 11 24 27 27 10 356 357 359 3 14 16 12 15 18 15 12 9 3 5 16 22 19 19 23 24 25 33 42 41 37 35 34 26 18 13 11 9 7 3 357 351 348 346 341 335 334 326 276 226 210 203 200 197 190 183 178 176 181 186 192 197 199 200 201 201 201 202 204 207 210 214 216 219
296 330 20 3 343 311 333 27 49 33 358 348 343 337 336 344 14 35 22 3 355 351 352 3 11 9 10 13 11 11 12 7 0 359 7 17 20 21 21 22 30 39 38 34 33 32 27 19 9 0 357 357 355 352 347 343 343 341 332 327 325 286 217 202 195 190 184 177 169 161 156 157 160 166 182 194 198 202 204 206 209 212 213 216 218 220 219
306 344 5 356 337 307 305 315 337 359 355 344 333 328 329 329 337 15 22 359 354 355 346 353 9 8 360 3 9 6 4 6 360 348 354 13 14 16 24 27 29 35 37 36 33 32 30 21 7 354 346 346 346 343 340 338 339 339 332 320 313 290 202 190 184 174 164 159 157 155 153 150 143 133 137 170 191 199 206 210 213 216 220 221 220 216 211
291 305 323 325 309 289 288 295 308 321 334 340 325 315 316 315 315 341 18 4 359 0 346 345 5 8 347 350 7 3 352 360 2 356 355 359 358 15 36 41 37 38 41 39 35 35 35 22 6 353 342 341 343 339 335 337 339 336 329 313 291 264 182 176 172 162 154 151 151 152 152 150 142 128 112 107 123 155 184 202 207 210 214 215 210 207 204
283 288 298 299 288 279 278 285 294 300 310 321 306 298 297 301 309 340 17 7 354 356 348 342 349 354 346 347 4 3 352 354 359 356 356 358 0 23 50 50 41 37 39 38 42 44 35 17 2 349 339 338 341 339 334 337 340 334 326 318 275 208 182 173 167 160 155 154 152 149 146 143 141 134 120 104 94 95 109 132 151 160 164 163 159 160 170
285 281 282 279 271 269 274 281 283 284 288 286 278 280 290 298 307 336 1 359 351 351 350 340 338 343 345 344 358 6 357 348 353 0 6 8 12 28 56 57 46 41 40 45 57 55 22 4 354 346 343 342 344 345 340 335 339 343 348 3 142 175 178 173 164 159 157 155 152 149 146 142 140 137 131 122 110 101 100 105 111 114 116 120 125 124 124
285 281 279 274 267 263 262 268 272 268 258 250 244 252 288 317 341 340 332 336 330 326 334 330 323 329 335 335 350 7 359 347 357 12 22 20 15 14 22 49 60 51 43 46 52 39 18 14 10 3 356 345 341 350 352 342 345 17 71 81 97 136 161 168 162 156 154 153 150 147 145 143 141 138 135 133 128 121 113 107 104 104 106 109 115 118 118
287 281 278 276 273 262 227 225 251 258 238 229 234 256 283 308 338 336 322 324 318 307 314 315 312 321 331 335 348 5 3 358 9 23 31 25 15 13 22 77 86 61 47 45 46 41 38 38 32 23 11 348 337 350 5 9 36 93 105 99 90 93 114 143 151 150 150 149 146 144 142 140 137 133 130 128 126 123 120 115 108 104 104 105 109 113 116
284 272 254 251 262 263 230 212 245 269 277 274 274 277 275 283 303 309 301 311 315 307 315 326 323 324 325 323 333 357 9 11 19 27 27 24 24 33 52 77 86 73 62 55 49 47 46 43 38 33 23 2 348 1 35 81 107 109 107 101 93 88 92 113 132 140 143 144 144 142 139 135 131 127 123 121 119 117 116 115 113 111 108 108 109 112 112
297 282 253 239 250 261 262 251 249 254 264 267 264 262 262 259 257 253 245 254 269 279 314 332 331 324 311 301 311 9 32 26 31 36 36 39 45 54 65 77 80 75 70 64 59 57 54 44 37 35 32 21 15 39 74 102 114 112 105 100 96 92 92 103 118 127 130 132 134 134 132 130 127 124 121 119 119 116 113 113 114 115 114 114 115 115 115
306 292 268 250 248 251 252 251 246 237 240 245 246 245 245 244 240 228 220 224 222 207 256 315 323 319 309 299 273 121 100 84 74 65 58 56 56 61 69 75 71 59 45 37 40 54 62 52 37 31 34 41 53 62 73 93 107 108 104 99 94 90 91 99 108 114 116 118 121 124 124 124 125 125 123 122 120 117 115 116 118 119 120 121 121 119 120
312 308 289 257 237 236 245 246 239 232 234 236 238 238 234 236 238 226 213 214 209 207 236 254 279 298 294 275 199 139 109 97 86 76 68 63 60 61 66 68 65 50 30 22 20 26 48 56 45 37 46 75 102 83 77 91 102 101 96 92 87 85 88 94 98 103 108 113 117 120 122 123 126 127 127 125 124 122 120 120 121 120 121 124 125 124 125
336 345 341 304 244 238 250 246 229 235 237 228 231 237 231 225 230 228 217 207 198 203 229 239 260 280 277 238 155 127 108 96 85 76 70 64 60 61 65 66 63 55 43 35 26 19 28 42 45 48 64 95 120 108 93 95 97 94 92 89 86 85 86 88 88 90 93 97 101 104 107 111 116 121 123 125 127 127 126 124 123 122 121 121 120 120 124
354 358 353 339 305 264 261 255 236 234 233 224 231 241 234 222 225 222 208 193 183 185 198 240 285 286 266 169 125 112 104 93 81 73 69 64 62 63 66 67 65 58 49 42 36 31 30 35 46 60 77 96 111 112 105 101 96 91 91 91 88 84 83 82 82 81 81 80 81 83 85 88 91 95 100 107 113 115 114 112 110 107 102 96 91 91 98
0 360 353 350 353 345 315 292 262 238 233 231 235 236 232 229 225 214 202 192 176 170 189 257 287 283 214 124 104 99 99 91 79 76 74 68 64 64 66 68 66 61 55 48 40 35 31 31 48 68 81 93 103 108 108 106 101 95 92 92 89 85 82 80 79 78 77 74 75 77 78 78 79 80 83 86 88 88 89 89 87 83 78 74 73 75 76
2 3 0 360 5 9 7 2 352 325 278 249 237 232 230 229 221 209 200 184 169 175 200 267 285 178 122 102 86 83 84 79 77 83 82 76 71 67 67 66 63 61 58 49 39 34 31 30 44 70 84 91 98 102 105 108 108 104 99 96 93 89 85 82 79 79 78 77 77 76 75 75 76 77 78 80 80 80 82 82 78 75 71 68 68 72 72
3 6 6 6 9 12 14 12 4 355 344 313 271 248 227 213 204 200 190 173 166 173 155 114 106 109 106 98 94 91 86 83 81 79 79 81 79 73 67 61 53 52 54 46 36 33 35 35 46 71 82 86 92 99 103 106 108 107 105 102 98 94 91 87 83 81 79 79 79 78 77 77 77 76 76 77 77 77 78 77 74 71 68 64 64 66 65
5 7 9 9 11 13 14 12 8 5 5 7 7 5 0 354 179 190 189 183 176 164 139 122 115 108 97 98 101 98 92 92 90 83 82 84 80 73 67 59 48 44 45 39 35 39 43 44 56 72 75 73 79 92 101 104 105 105 104 102 100 97 95 92 88 85 82 81 80 80 79 78 76 73 73 74 74 73 73 72 70 68 65 62 62 61 57
7 9 11 13 16 17 17 16 15 14 14 16 17 20 30 42 49 58 76 114 136 135 126 118 115 112 106 100 96 93 92 94 93 88 85 82 77 71 64 56 49 46 42 40 47 53 53 52 60 69 69 63 62 73 89 98 99 99 99 97 96 95 94 92 89 86 84 83 82 81 79 78 76 73 71 70 71 71 70 69 69 67 64 63 62 58 53
10 10 11 14 18 21 20 19 19 18 18 20 18 21 39 56 63 62 55 53 77 110 117 113 111 112 110 103 97 93 91 91 90 86 83 79 77 74 65 55 54 59 59 56 59 61 62 62 64 68 71 70 63 64 74 84 88 89 90 91 90 89 90 90 89 86 84 83 82 80 79 78 77 76 74 73 73 73 71 71 71 70 68 67 65 60 55
15 12 12 15 19 21 21 21 21 21 24 27 25 22 37 58 67 66 59 52 58 79 97 103 101 98 96 97 96 93 90 87 86 86 84 79 77 76 68 55 53 59 65 66 65 64 64 66 67 68 72 77 77 74 75 78 80 82 84 85 84 84 84 86 86 86 85 84 83 82 81 80 79 79 78 77 76 74 73 71 71 71 70 69 67 63 60
21 18 18 19 20 22 22 22 24 25 28 30 29 28 38 55 64 64 62 61 61 65 73 81 85 83 83 87 89 87 85 84 82 82 81 77 73 73 69 55 51 56 64 69 70 70 68 66 66 67 71 76 80 82 82 81 79 80 80 81 82 82 82 82 83 85 85 85 85 84 84 84 83 81 80 78 76 75 75 73 72 70 69 69 68 66 63
25 25 25 23 21 22 24 24 27 30 32 32 31 31 38 51 60 62 61 61 61 61 63 68 75 78 80 84 86 83 79 77 76 75 75 72 70 71 71 63 59 61 67 70 71 73 71 69 68 69 71 74 78 82 84 83 81 80 80 79 80 81 81 82 83 85 86 87 87 87 87 86 85 83 82 80 79 77 75 73 71 69 67 66 66 65 63
29 31 32 28 24 24 25 26 31 35 36 36 36 36 39 46 56 61 61 59 57 58 59 59 63 67 69 73 77 76 72 69 72 74 74 71 69 69 71 71 67 66 69 72 72 71 71 71 72 73 75 77 79 81 81 80 80 80 81 81 81 81 81 81 82 84 84 85 86 86 86 86 85 84 82 80 79 76 73 71 69 67 65 63 62 61 60
36 37 41 41 36 32 28 29 32 35 37 40 42 43 43 45 51 58 62 59 56 56 57 55 53 56 59 61 65 69 66 61 63 69 72 70 65 61 63 68 69 67 67 70 71 69 69 72 75 78 80 82 82 81 80 79 79 80 81 82 82 83 83 82 82 83 83 84 85 86 87 87 87 86 84 82 80 77 75 72 69 67 65 63 60 58 56
46 45 51 55 51 43 37 34 34 35 40 46 48 48 48 49 50 55 61 62 58 55 55 54 51 51 52 53 59 66 67 63 59 61 65 66 61 57 59 64 67 67 67 68 69 68 69 72 76 79 81 82 82 81 80 80 79 80 81 81 83 84 85 86 86 85 85 86 87 88 88 89 89 88 87 85 83 81 78 75 72 69 66 63 60 58 56
56 53 54 58 58 54 50 49 50 49 50 52 52 50 52 55 55 57 61 65 65 63 61 58 53 51 52 53 56 62 65 64 61 61 63 65 66 65 65 65 65 65 66 68 68 67 68 72 75 77 79 80 80 80 79 79 80 81 81 81 82 83 84 85 85 85 85 85 88 90 91 91 91 90 89 87 85 83 80 78 74 71 67 65 63 60 57
55 53 53 59 66 68 65 64 62 58 55 55 54 52 55 60 64 65 66 68 69 70 70 68 63 58 56 55 56 58 60 61 59 59 61 64 66 67 68 69 69 68 68 69 69 71 73 75 76 77 78 79 79 79 78 79 80 80 80 80 80 80 80 81 83 84 85 87 90 93 95 94 93 91 90 88 86 85 82 79 76 74 70 67 64 61 58
49 46 49 59 69 75 76 73 67 60 60 64 65 62 63 66 69 70 72 73 73 72 72 73 73 69 65 63 62 62 63 65 62 58 59 62 64 65 66 69 71 72 72 71 71 73 76 78 78 78 79 79 78 78 79 80 80 80 80 80 79 78 78 79 80 82 85 87 89 92 94 96 96 95 93 92 91 90 86 83 80 78 75 71 68 64 62
43 40 42 48 52 57 65 69 64 59 64 74 78 79 79 78 76 73 72 74 76 76 74 72 72 73 73 73 73 71 70 72 73 70 68 68 67 66 66 67 69 72 75 74 72 73 77 80 81 82 82 80 79 79 80 81 81 82 82 82 81 80 80 80 79 79 80 82 85 89 93 97 98 97 95 94 94 92 88 84 81 79 75 73 70 67 65
44 40 35 34 36 39 41 46 58 73 75 74 80 91 96 92 85 82 79 76 75 76 77 77 77 78 78 79 80 81 80 80 80 81 80 78 74 70 69 70 71 74 78 78 76 76 79 82 83 83 82 81 81 81 81 81 82 83 84 84 83 82 82 81 80 79 77 76 78 82 87 92 94 92 90 93 97 97 92 87 82 77 73 70 67 64 62
44 40 33 30 32 33 31 29 35 63 85 80 80 90 100 102 97 95 94 91 87 85 83 82 82 83 84 83 83 83 84 85 86 86 86 85 82 79 78 77 78 80 82 81 80 79 80 82 83 84 84 82 81 81 82 82 83 83 84 84 84 83 83 82 81 80 78 77 77 78 79 81 81 80 81 90 99 101 96 90 84 77 71 66 62 57 55
44 43 41 39 36 32 27 23 22 25 41 84 91 92 101 113 117 112 105 100 98 97 95 91 88 87 84 81 78 78 78 81 85 89 91 90 90 90 89 87 86 85 85 84 84 84 85 85 85 86 86 85 83 83 84 84 84 82 82 83 83 83 83 83 82 81 81 80 79 78 77 76 76 75 78 84 92 95 91 86 81 75 68 61 55 50 46